Lakeview, OR

10:54 PM PST on February 26, 2017 (GMT -0800)
Lake County

Weather History for KLKV - March, 2014

Change the Weather History Date:

Friday, March 21, 2014

  Actual Average Record
Temperature  
Mean Temperature 42 °F -  
Max Temperature 57 °F 52 °F 71 °F (1940)
Min Temperature 26 °F 28 °F 5 °F (1952)
Degree Days  
Heating Degree Days 24    
Moisture  
Dew Point 12 °F    
Average Humidity 35    
Maximum Humidity 51    
Minimum Humidity 18    
Precipitation  
Precipitation 0.00 in - - ()
Sea Level Pressure  
Sea Level Pressure 30.06 in    
Wind  
Wind Speed 14 mph (North)    
Max Wind Speed 21 mph    
Max Gust Speed 26 mph    
Visibility 10 miles    
Events      
Averages and records for this station are not official NWS values.
T = Trace of Precipitation, MM = Missing Value Source: NWS Daily Summary

Daily Weather History Graph

Daily Weather History Graph

Search for Another Location

Airport or City:

Trip Planner

Search our weather history database for the weather conditions in past years. The results will help you decide how hot, cold, wet, or windy it might be!

Date:

Astronomy

Mar. 21, 2014 Rise Set
Actual Time 7:02 AM PDT 7:15 PM PDT
Civil Twilight 6:35 AM PDT 7:43 PM PDT
Nautical Twilight 6:02 AM PDT 8:15 PM PDT
Astronomical Twilight 5:28 AM PDT 8:49 PM PDT
Moon No Moon Rise 9:54 AM PDT (3/21)
Length of Visible Light 13h 07m
Length of Day
12h 12m
Waning Gibbous, 74% of the Moon is Illuminated
Mar 21
Waning Gibbous
Mar 23
Last Quarter
Mar 30
New
Apr 7
First Quarter
Apr 15
Full

Hourly Weather History & Observations

Time (PDT) Temp. Windchill Dew Point Humidity Pressure Visibility Wind Dir Wind Speed Gust Speed Precip Events Conditions
12:15 AM 33.8 °F 22.8 °F 6.8 °F 32% 30.12 in 10.0 mi NNW 18.4 mph 26.5 mph N/A   Clear
12:35 AM 33.8 °F 22.5 °F 6.8 °F 32% 30.12 in 10.0 mi North 19.6 mph 26.5 mph N/A   Clear
12:55 AM 32.0 °F 20.5 °F 6.8 °F 35% 30.12 in 10.0 mi North 18.4 mph 25.3 mph N/A   Clear
1:15 AM 30.2 °F 18.1 °F 6.8 °F 37% 30.12 in 10.0 mi North 18.4 mph 24.2 mph N/A   Clear
1:35 AM 30.2 °F 18.1 °F 6.8 °F 37% 30.11 in 10.0 mi NNW 18.4 mph - N/A   Clear
1:55 AM 30.2 °F 18.1 °F 8.6 °F 40% 30.11 in 10.0 mi NNW 18.4 mph 25.3 mph N/A   Clear
2:15 AM 30.2 °F 18.1 °F 8.6 °F 40% 30.11 in 10.0 mi North 18.4 mph 23.0 mph N/A   Clear
2:35 AM 30.2 °F 18.1 °F 10.4 °F 44% 30.10 in 10.0 mi North 18.4 mph - N/A   Clear
2:55 AM 30.2 °F 18.1 °F 10.4 °F 44% 30.10 in 10.0 mi North 18.4 mph 21.9 mph N/A   Clear
3:15 AM 28.4 °F 15.1 °F 8.6 °F 43% 30.09 in 10.0 mi NNW 20.7 mph 26.5 mph N/A   Clear
3:35 AM 28.4 °F 15.8 °F 10.4 °F 47% 30.09 in 10.0 mi NNW 18.4 mph 26.5 mph N/A   Clear
3:55 AM 28.4 °F 15.8 °F 10.4 °F 47% 30.08 in 10.0 mi North 18.4 mph 23.0 mph N/A   Clear
4:15 AM 28.4 °F 16.2 °F 10.4 °F 47% 30.08 in 10.0 mi NNW 17.3 mph 23.0 mph N/A   Clear
4:35 AM 28.4 °F 17.0 °F 10.4 °F 47% 30.09 in 10.0 mi North 15.0 mph - N/A   Clear
4:55 AM 26.6 °F 15.7 °F 10.4 °F 51% 30.08 in 10.0 mi North 12.7 mph - N/A   Clear
5:15 AM 28.4 °F 17.5 °F 10.4 °F 47% 30.09 in 10.0 mi NNW 13.8 mph - N/A   Clear
5:35 AM 28.4 °F 18.0 °F 10.4 °F 47% 30.08 in 10.0 mi North 12.7 mph - N/A   Clear
5:55 AM 26.6 °F 15.7 °F 10.4 °F 51% 30.08 in 10.0 mi North 12.7 mph - N/A   Clear
6:15 AM 26.6 °F 15.7 °F 10.4 °F 51% 30.08 in 10.0 mi NNW 12.7 mph - N/A   Clear
6:35 AM 26.6 °F 15.2 °F 10.4 °F 51% 30.08 in 10.0 mi NNW 13.8 mph - N/A   Clear
6:55 AM 26.6 °F 15.2 °F 10.4 °F 51% 30.08 in 10.0 mi NNW 13.8 mph - N/A   Clear
7:15 AM 26.6 °F 15.7 °F 10.4 °F 51% 30.08 in 10.0 mi NNW 12.7 mph - N/A   Clear
7:35 AM 26.6 °F 16.8 °F 10.4 °F 51% 30.08 in 10.0 mi North 10.4 mph - N/A   Clear
7:55 AM 28.4 °F 19.1 °F 12.2 °F 51% 30.08 in 10.0 mi NNW 10.4 mph - N/A   Clear
8:15 AM 30.2 °F 20.8 °F 12.2 °F 47% 30.08 in 10.0 mi NNW 11.5 mph - N/A   Clear
8:35 AM 30.2 °F 20.8 °F 12.2 °F 47% 30.08 in 10.0 mi NNW 11.5 mph - N/A   Clear
8:55 AM 33.8 °F 25.3 °F 12.2 °F 41% 30.08 in 10.0 mi NNW 11.5 mph - N/A   Clear
9:15 AM 35.6 °F 28.0 °F 12.2 °F 38% 30.08 in 10.0 mi NNW 10.4 mph - N/A   Clear
9:35 AM 37.4 °F 31.4 °F 12.2 °F 36% 30.07 in 10.0 mi NW 8.1 mph - N/A   Clear
9:55 AM 39.2 °F 33.6 °F 12.2 °F 33% 30.07 in 10.0 mi NNW 8.1 mph - N/A   Clear
10:15 AM 39.2 °F 34.2 °F 12.2 °F 33% 30.07 in 10.0 mi NW 6.9 mph - N/A   Clear
10:35 AM 41.0 °F - 14.0 °F 33% 30.07 in 10.0 mi Calm Calm - N/A   Clear
10:55 AM 41.0 °F 38.0 °F 12.2 °F 31% 30.06 in 10.0 mi ESE 4.6 mph - N/A   Clear
11:15 AM 42.8 °F 41.1 °F 12.2 °F 29% 30.06 in 10.0 mi East 3.5 mph - N/A   Clear
11:35 AM 46.4 °F 44.3 °F 15.8 °F 29% 30.05 in 10.0 mi South 4.6 mph - N/A   Clear
11:55 AM 46.4 °F - 15.8 °F 29% 30.05 in 10.0 mi Calm Calm - N/A   Clear
12:15 PM 48.2 °F - 15.8 °F 27% 30.05 in 10.0 mi SW 4.6 mph - N/A   Clear
12:35 PM 46.4 °F - 15.8 °F 29% 30.04 in 10.0 mi Calm Calm - N/A   Clear
12:55 PM 48.2 °F - 15.8 °F 27% 30.03 in 10.0 mi Calm Calm - N/A   Clear
1:15 PM 50.0 °F - 14.0 °F 24% 30.02 in 10.0 mi SE 5.8 mph - N/A   Clear
1:35 PM 51.8 °F - 14.0 °F 22% 30.02 in 10.0 mi West 3.5 mph - N/A   Clear
1:55 PM 53.6 °F - 12.2 °F 19% 30.01 in 10.0 mi NW 4.6 mph - N/A   Clear
2:15 PM 51.8 °F - 8.6 °F 18% 29.99 in 10.0 mi ESE 5.8 mph - N/A   Clear
2:35 PM 53.6 °F - 10.4 °F 18% 29.99 in 10.0 mi Calm Calm - N/A   Clear
2:55 PM 53.6 °F - 12.2 °F 19% 29.98 in 10.0 mi East 3.5 mph - N/A   Clear
3:15 PM 53.6 °F - 12.2 °F 19% 29.97 in 10.0 mi East 4.6 mph - N/A   Clear
3:35 PM 57.2 °F - 15.8 °F 20% 29.97 in 10.0 mi NNW 9.2 mph 17.3 mph N/A   Clear
3:55 PM 53.6 °F - 17.6 °F 24% 29.98 in 10.0 mi NNW 15.0 mph 25.3 mph N/A   Clear
4:15 PM 53.6 °F - 15.8 °F 22% 29.98 in 10.0 mi North 17.3 mph 24.2 mph N/A   Clear
4:35 PM 51.8 °F - 15.8 °F 24% 29.99 in 10.0 mi North 18.4 mph 26.5 mph N/A   Clear
4:55 PM 51.8 °F - 15.8 °F 24% 29.99 in 10.0 mi NNE 18.4 mph 24.2 mph N/A   Clear
5:15 PM 51.8 °F - 12.2 °F 21% 30.00 in 10.0 mi North 15.0 mph 20.7 mph N/A   Clear
5:35 PM 51.8 °F - 10.4 °F 19% 29.99 in 10.0 mi North 17.3 mph - N/A   Clear
5:55 PM 50.0 °F - 10.4 °F 20% 30.00 in 10.0 mi North 18.4 mph 21.9 mph N/A   Clear
6:15 PM 48.2 °F - 12.2 °F 24% 30.01 in 10.0 mi North 16.1 mph 23.0 mph N/A   Clear
6:35 PM 46.4 °F 40.7 °F 12.2 °F 25% 30.01 in 10.0 mi North 12.7 mph 19.6 mph N/A   Clear
6:55 PM 44.6 °F 37.4 °F 10.4 °F 25% 30.02 in 10.0 mi North 16.1 mph 20.7 mph N/A   Clear
7:15 PM 42.8 °F 37.0 °F 10.4 °F 27% 30.02 in 10.0 mi North 10.4 mph - N/A   Clear
7:35 PM 39.2 °F 32.0 °F 10.4 °F 31% 30.03 in 10.0 mi North 11.5 mph - N/A   Clear
7:55 PM 39.2 °F 32.5 °F 10.4 °F 31% 30.03 in 10.0 mi North 10.4 mph - N/A   Clear
8:15 PM 39.2 °F 32.5 °F 10.4 °F 31% 30.04 in 10.0 mi North 10.4 mph - N/A   Clear
8:35 PM 37.4 °F 32.8 °F 8.6 °F 30% 30.05 in 10.0 mi NNE 5.8 mph - N/A   Clear
8:55 PM 33.8 °F 29.6 °F 10.4 °F 38% 30.06 in 10.0 mi NNE 4.6 mph - N/A   Clear
9:15 PM 33.8 °F 27.0 °F 10.4 °F 38% 30.07 in 10.0 mi North 8.1 mph - N/A   Clear
9:35 PM 32.0 °F 22.1 °F 10.4 °F 41% 30.08 in 10.0 mi NNW 13.8 mph - N/A   Clear
9:55 PM 33.8 °F 24.3 °F 12.2 °F 41% 30.09 in 10.0 mi NNW 13.8 mph - N/A   Clear
10:15 PM 33.8 °F 25.8 °F 12.2 °F 41% 30.10 in 10.0 mi North 10.4 mph - N/A   Clear
10:35 PM 33.8 °F 24.8 °F 12.2 °F 41% 30.10 in 10.0 mi North 12.7 mph - N/A   Clear
10:55 PM 33.8 °F 24.8 °F 12.2 °F 41% 30.11 in 10.0 mi North 12.7 mph - N/A   Clear
11:15 PM 33.8 °F 23.5 °F 12.2 °F 41% 30.11 in 10.0 mi North 16.1 mph 21.9 mph N/A   Clear
11:35 PM 33.8 °F 23.9 °F 12.2 °F 41% 30.12 in 10.0 mi North 15.0 mph - N/A   Clear
11:55 PM 33.8 °F 24.8 °F 12.2 °F 41% 30.12 in 10.0 mi North 12.7 mph - N/A   Clear